Retour au catalogue

STARLINK-2704

ActifCommunicationsVLEO
NORAD 48643·PAYLOAD·🇺🇸 United States

Lancé May 26, 2021 depuis Cape Canaveral Space Force Station

Loading…

Prochains Passages (prochaines 24 heures)

TLE

FraisSource: CelesTrak SupGP

Époque: Sep 15, 2026, 01:36 UTC

1 48643C 21044F   26258.06715278  .00046607  00000+0  14983-2 0  2582
2 48643  53.1568 312.5492 0001112  89.8039  30.2724 15.31687778    15

Suivez STARLINK-2704 en temps réel avec AllMySat

Download on the App Store